Time,TemperatureF,DewpointF,PressureIn,WindDirection,WindDirectionDegrees,WindSpeedMPH,WindSpeedGustMPH,Humidity,HourlyPrecipIn,Conditions,Clouds,dailyrainin,SoftwareType,DateUTC
2013-04-01 00:00:00,46.8,24.2,29.85,SSE,157,0.0,0.0,41,0.00,,,0.00,LWC V2.10 B1813,2013-04-01 06:00:00,
2013-04-01 00:05:00,46.6,25.1,29.85,NNE,22,0.0,0.0,43,0.00,,,0.00,LWC V2.10 B1813,2013-04-01 06:05:00,
2013-04-01 00:10:00,46.6,25.1,29.85,NNE,22,0.0,0.0,43,0.00,,,0.00,LWC V2.10 B1813,2013-04-01 06:10:00,
2013-04-01 00:15:00,46.6,25.1,29.85,ENE,67,0.0,0.0,43,0.00,,,0.00,LWC V2.10 B1813,2013-04-01 06:15:00,
2013-04-01 00:20:00,46.6,25.1,29.85,NE,45,0.0,0.0,43,0.00,,,0.00,LWC V2.10 B1813,2013-04-01 06:20:00,
2013-04-01 00:25:00,46.2,25.4,29.85,NE,45,0.0,0.0,44,0.00,,,0.00,LWC V2.10 B1813,2013-04-01 06:25:00,
2013-04-01 00:30:00,46.0,25.2,29.85,NNE,22,0.0,0.0,44,0.00,,,0.00,LWC V2.10 B1813,2013-04-01 06:30:00,
2013-04-01 00:35:00,45.5,24.7,29.86,WSW,247,0.0,0.0,44,0.00,,,0.00,LWC V2.10 B1813,2013-04-01 06:35:00,
2013-04-01 00:40:00,45.3,25.1,29.86,West,270,0.0,0.0,45,0.00,,,0.00,LWC V2.10 B1813,2013-04-01 06:40:00,
2013-04-01 00:45:00,44.4,24.3,29.86,West,270,0.0,0.0,45,0.00,,,0.00,LWC V2.10 B1813,2013-04-01 06:45:00,
2013-04-01 00:50:00,43.9,24.3,29.86,West,270,0.0,0.0,46,0.00,,,0.00,LWC V2.10 B1813,2013-04-01 06:50:00,
2013-04-01 00:55:00,42.6,23.7,29.86,West,270,0.0,0.0,47,0.00,,,0.00,LWC V2.10 B1813,2013-04-01 06:55:00,
2013-04-01 01:02:00,41.9,23.6,29.85,WSW,247,0.0,0.0,48,0.00,,,0.00,LWC V2.10 B1813,2013-04-01 07:02:00,
2013-04-01 01:07:00,40.8,23.0,29.85,WSW,247,0.0,0.0,49,0.00,,,0.00,LWC V2.10 B1813,2013-04-01 07:07:00,
2013-04-01 01:12:00,40.5,23.2,29.86,WSW,247,0.0,0.0,50,0.00,,,0.00,LWC V2.10 B1813,2013-04-01 07:12:00,
2013-04-01 01:17:00,39.9,23.2,29.86,WSW,247,0.0,0.0,51,0.00,,,0.00,LWC V2.10 B1813,2013-04-01 07:17:00,
2013-04-01 01:22:00,39.0,22.8,29.85,WSW,247,0.0,0.0,52,0.00,,,0.00,LWC V2.10 B1813,2013-04-01 07:22:00,
2013-04-01 01:27:00,38.8,23.1,29.86,WSW,247,0.0,0.0,53,0.00,,,0.00,LWC V2.10 B1813,2013-04-01 07:27:00,
2013-04-01 01:32:00,38.8,23.1,29.86,WSW,247,0.0,0.0,53,0.00,,,0.00,LWC V2.10 B1813,2013-04-01 07:32:00,
2013-04-01 01:37:00,38.3,22.6,29.86,WSW,247,0.0,0.0,53,0.00,,,0.00,LWC V2.10 B1813,2013-04-01 07:37:00,
2013-04-01 01:42:00,37.9,22.7,29.86,WSW,247,0.0,0.0,54,0.00,,,0.00,LWC V2.10 B1813,2013-04-01 07:42:00,
2013-04-01 01:47:00,37.4,22.2,29.86,WSW,247,0.0,0.0,54,0.00,,,0.00,LWC V2.10 B1813,2013-04-01 07:47:00,
2013-04-01 01:52:00,37.2,22.5,29.86,WSW,247,0.0,0.0,55,0.00,,,0.00,LWC V2.10 B1813,2013-04-01 07:52:00,
2013-04-01 01:57:00,36.7,22.0,29.86,WSW,247,0.0,0.0,55,0.00,,,0.00,LWC V2.10 B1813,2013-04-01 07:57:00,
2013-04-01 02:02:00,36.1,21.9,29.86,WSW,247,0.0,0.0,56,0.00,,,0.00,LWC V2.10 B1813,2013-04-01 08:02:00,
2013-04-01 02:07:00,35.8,22.0,29.86,WSW,247,0.0,0.0,57,0.00,,,0.00,LWC V2.10 B1813,2013-04-01 08:07:00,
2013-04-01 02:12:00,35.2,21.5,29.85,WSW,247,0.0,0.0,57,0.00,,,0.00,LWC V2.10 B1813,2013-04-01 08:12:00,
2013-04-01 02:17:00,34.9,21.6,29.85,WSW,247,0.0,0.0,58,0.00,,,0.00,LWC V2.10 B1813,2013-04-01 08:17:00,
2013-04-01 02:22:00,34.3,21.5,29.85,WSW,247,0.0,0.0,59,0.00,,,0.00,LWC V2.10 B1813,2013-04-01 08:22:00,
2013-04-01 02:27:00,34.3,21.9,29.86,WSW,247,0.0,0.0,60,0.00,,,0.00,LWC V2.10 B1813,2013-04-01 08:27:00,
2013-04-01 02:32:00,34.3,21.9,29.86,WSW,247,0.0,0.0,60,0.00,,,0.00,LWC V2.10 B1813,2013-04-01 08:32:00,
2013-04-01 02:37:00,33.6,21.2,29.86,WSW,247,0.0,0.0,60,0.00,,,0.00,LWC V2.10 B1813,2013-04-01 08:37:00,
2013-04-01 02:42:00,33.4,21.4,29.86,WSW,247,0.0,0.0,61,0.00,,,0.00,LWC V2.10 B1813,2013-04-01 08:42:00,
2013-04-01 02:47:00,33.1,21.5,29.86,WSW,247,0.0,0.0,62,0.00,,,0.00,LWC V2.10 B1813,2013-04-01 08:47:00,
2013-04-01 02:52:00,33.1,21.5,29.86,WSW,247,0.0,0.0,62,0.00,,,0.00,LWC V2.10 B1813,2013-04-01 08:52:00,
2013-04-01 02:57:00,32.7,21.1,29.86,WSW,247,0.0,0.0,62,0.00,,,0.00,LWC V2.10 B1813,2013-04-01 08:57:00,
2013-04-01 03:02:00,32.4,21.2,29.86,WSW,247,0.0,0.0,63,0.00,,,0.00,LWC V2.10 B1813,2013-04-01 09:02:00,
2013-04-01 03:07:00,32.2,21.0,29.86,WSW,247,0.0,0.0,63,0.00,,,0.00,LWC V2.10 B1813,2013-04-01 09:07:00,
2013-04-01 03:12:00,31.8,21.0,29.86,WSW,247,0.0,0.0,64,0.00,,,0.00,LWC V2.10 B1813,2013-04-01 09:12:00,
2013-04-01 03:17:00,31.8,21.0,29.86,WSW,247,0.0,0.0,64,0.00,,,0.00,LWC V2.10 B1813,2013-04-01 09:17:00,
2013-04-01 03:22:00,31.6,20.8,29.86,WSW,247,0.0,0.0,64,0.00,,,0.00,LWC V2.10 B1813,2013-04-01 09:22:00,
2013-04-01 03:27:00,31.8,21.4,29.86,WSW,247,0.0,0.0,65,0.00,,,0.00,LWC V2.10 B1813,2013-04-01 09:27:00,
2013-04-01 03:32:00,31.6,21.2,29.86,WSW,247,0.0,0.0,65,0.00,,,0.00,LWC V2.10 B1813,2013-04-01 09:32:00,
2013-04-01 03:37:00,31.3,21.2,29.85,WSW,247,0.0,0.0,66,0.00,,,0.00,LWC V2.10 B1813,2013-04-01 09:37:00,
2013-04-01 03:42:00,31.1,21.0,29.85,WSW,247,0.0,0.0,66,0.00,,,0.00,LWC V2.10 B1813,2013-04-01 09:42:00,
2013-04-01 03:47:00,30.9,21.2,29.85,WSW,247,0.0,0.0,67,0.00,,,0.00,LWC V2.10 B1813,2013-04-01 09:47:00,
2013-04-01 03:52:00,30.7,21.0,29.85,WSW,247,0.0,0.0,67,0.00,,,0.00,LWC V2.10 B1813,2013-04-01 09:52:00,
2013-04-01 03:57:00,30.7,21.0,29.85,WSW,247,0.0,0.0,67,0.00,,,0.00,LWC V2.10 B1813,2013-04-01 09:57:00,
2013-04-01 04:02:00,30.7,21.4,29.85,WSW,247,0.0,0.0,68,0.00,,,0.00,LWC V2.10 B1813,2013-04-01 10:02:00,
2013-04-01 04:07:00,30.7,21.4,29.85,WSW,247,0.0,0.0,68,0.00,,,0.00,LWC V2.10 B1813,2013-04-01 10:07:00,
2013-04-01 04:12:00,30.7,21.4,29.85,WSW,247,0.0,0.0,68,0.00,,,0.00,LWC V2.10 B1813,2013-04-01 10:12:00,
2013-04-01 04:17:00,30.7,21.7,29.85,WSW,247,0.0,0.0,69,0.00,,,0.00,LWC V2.10 B1813,2013-04-01 10:17:00,
2013-04-01 04:22:00,30.6,21.6,29.84,WSW,247,0.0,0.0,69,0.00,,,0.00,LWC V2.10 B1813,2013-04-01 10:22:00,
2013-04-01 04:27:00,30.6,21.9,29.84,WSW,247,0.0,0.0,70,0.00,,,0.00,LWC V2.10 B1813,2013-04-01 10:27:00,
2013-04-01 04:32:00,30.4,21.7,29.84,WSW,247,0.0,0.0,70,0.00,,,0.00,LWC V2.10 B1813,2013-04-01 10:32:00,
2013-04-01 04:37:00,30.2,21.9,29.84,WSW,247,0.0,0.0,71,0.00,,,0.00,LWC V2.10 B1813,2013-04-01 10:37:00,
2013-04-01 04:42:00,30.2,21.9,29.84,WSW,247,0.0,0.0,71,0.00,,,0.00,LWC V2.10 B1813,2013-04-01 10:42:00,
2013-04-01 04:47:00,30.4,22.1,29.84,WSW,247,0.0,0.0,71,0.00,,,0.00,LWC V2.10 B1813,2013-04-01 10:47:00,
2013-04-01 04:52:00,30.7,22.4,29.83,WSW,247,0.0,0.0,71,0.00,,,0.00,LWC V2.10 B1813,2013-04-01 10:52:00,
2013-04-01 04:57:00,30.7,22.4,29.84,WSW,247,0.0,0.0,71,0.00,,,0.00,LWC V2.10 B1813,2013-04-01 10:57:00,
2013-04-01 05:02:00,30.6,22.2,29.84,WSW,247,0.0,0.0,71,0.00,,,0.00,LWC V2.10 B1813,2013-04-01 11:02:00,
2013-04-01 05:07:00,30.0,21.7,29.84,WSW,247,0.0,0.0,71,0.00,,,0.00,LWC V2.10 B1813,2013-04-01 11:07:00,
2013-04-01 05:12:00,29.7,21.4,29.84,WSW,247,0.0,0.0,71,0.00,,,0.00,LWC V2.10 B1813,2013-04-01 11:12:00,
2013-04-01 05:17:00,29.8,21.9,29.84,ENE,67,0.0,0.0,72,0.00,,,0.00,LWC V2.10 B1813,2013-04-01 11:17:00,
2013-04-01 05:22:00,31.3,23.6,29.84,NE,45,0.0,0.0,73,0.00,,,0.00,LWC V2.10 B1813,2013-04-01 11:22:00,
2013-04-01 05:27:00,31.6,23.6,29.84,ENE,67,0.0,0.0,72,0.00,,,0.00,LWC V2.10 B1813,2013-04-01 11:27:00,
2013-04-01 05:32:00,31.6,23.6,29.84,SSE,157,0.0,0.0,72,0.00,,,0.00,LWC V2.10 B1813,2013-04-01 11:32:00,
2013-04-01 05:37:00,30.9,22.9,29.85,SSE,157,0.0,0.0,72,0.00,,,0.00,LWC V2.10 B1813,2013-04-01 11:37:00,
2013-04-01 05:42:00,30.7,22.7,29.85,SSE,157,0.0,0.0,72,0.00,,,0.00,LWC V2.10 B1813,2013-04-01 11:42:00,
2013-04-01 05:47:00,30.4,22.4,29.84,SSE,157,0.0,0.0,72,0.00,,,0.00,LWC V2.10 B1813,2013-04-01 11:47:00,
2013-04-01 05:52:00,30.2,22.5,29.84,SSE,157,0.0,0.0,73,0.00,,,0.00,LWC V2.10 B1813,2013-04-01 11:52:00,
2013-04-01 05:57:00,30.0,22.4,29.84,SSE,157,0.0,0.0,73,0.00,,,0.00,LWC V2.10 B1813,2013-04-01 11:57:00,
2013-04-01 06:02:00,29.7,22.0,29.84,SSE,157,0.0,0.0,73,0.00,,,0.00,LWC V2.10 B1813,2013-04-01 12:02:00,
2013-04-01 06:07:00,29.1,21.5,29.84,SSE,157,0.0,0.0,73,0.00,,,0.00,LWC V2.10 B1813,2013-04-01 12:07:00,
2013-04-01 06:12:00,28.8,21.2,29.84,SSE,157,0.0,0.0,73,0.00,,,0.00,LWC V2.10 B1813,2013-04-01 12:12:00,
2013-04-01 06:17:00,28.2,20.7,29.84,SSE,157,0.0,0.0,73,0.00,,,0.00,LWC V2.10 B1813,2013-04-01 12:17:00,
2013-04-01 06:22:00,28.0,20.5,29.84,SSE,157,0.0,0.0,73,0.00,,,0.00,LWC V2.10 B1813,2013-04-01 12:22:00,
2013-04-01 06:27:00,27.7,20.1,29.85,SSE,157,0.0,0.0,73,0.00,,,0.00,LWC V2.10 B1813,2013-04-01 12:27:00,
2013-04-01 06:32:00,27.5,20.3,29.85,SSE,157,0.0,0.0,73,0.00,,,0.00,LWC V2.10 B1813,2013-04-01 12:32:00,
2013-04-01 06:37:00,27.3,20.1,29.84,SSE,157,0.0,0.0,74,0.00,,,0.00,LWC V2.10 B1813,2013-04-01 12:37:00,
2013-04-01 06:42:00,27.1,19.9,29.84,SSE,157,0.0,0.0,74,0.00,,,0.00,LWC V2.10 B1813,2013-04-01 12:42:00,
2013-04-01 06:47:00,26.8,19.7,29.84,SSE,157,0.0,0.0,74,0.00,,,0.00,LWC V2.10 B1813,2013-04-01 12:47:00,
2013-04-01 06:52:00,26.6,19.4,29.85,SSE,157,0.0,0.0,74,0.00,,,0.00,LWC V2.10 B1813,2013-04-01 12:52:00,
2013-04-01 06:57:00,26.4,19.2,29.84,SSE,157,0.0,0.0,74,0.00,,,0.00,LWC V2.10 B1813,2013-04-01 12:57:00,
2013-04-01 07:02:00,26.8,19.9,29.84,SSE,157,0.0,0.0,75,0.00,,,0.00,LWC V2.10 B1813,2013-04-01 13:02:00,
2013-04-01 07:07:00,27.0,20.0,29.84,SSE,157,0.0,0.0,75,0.00,,,0.00,LWC V2.10 B1813,2013-04-01 13:07:00,
2013-04-01 07:12:00,27.1,20.2,29.85,SSE,157,0.0,0.0,75,0.00,,,0.00,LWC V2.10 B1813,2013-04-01 13:12:00,
2013-04-01 07:17:00,27.3,20.4,29.85,SSE,157,0.0,0.0,75,0.00,,,0.00,LWC V2.10 B1813,2013-04-01 13:17:00,
2013-04-01 07:22:00,27.7,20.8,29.84,SSE,157,0.0,0.0,75,0.00,,,0.00,LWC V2.10 B1813,2013-04-01 13:22:00,
2013-04-01 07:27:00,28.0,21.1,29.84,SSE,157,0.0,0.0,75,0.00,,,0.00,LWC V2.10 B1813,2013-04-01 13:27:00,
2013-04-01 07:32:00,28.2,21.3,29.84,SSE,157,0.0,0.0,75,0.00,,,0.00,LWC V2.10 B1813,2013-04-01 13:32:00,
2013-04-01 07:37:00,28.2,21.3,29.84,SSE,157,0.0,0.0,75,0.00,,,0.00,LWC V2.10 B1813,2013-04-01 13:37:00,
2013-04-01 07:42:00,28.6,21.6,29.85,SSE,157,0.0,0.0,75,0.00,,,0.00,LWC V2.10 B1813,2013-04-01 13:42:00,
2013-04-01 07:47:00,28.9,22.3,29.84,SSE,157,0.0,0.0,76,0.00,,,0.00,LWC V2.10 B1813,2013-04-01 13:47:00,
2013-04-01 07:52:00,29.5,22.8,29.85,SSE,157,0.0,0.0,76,0.00,,,0.00,LWC V2.10 B1813,2013-04-01 13:52:00,
2013-04-01 07:57:00,30.0,23.3,29.85,SSE,157,0.0,0.0,76,0.00,,,0.00,LWC V2.10 B1813,2013-04-01 13:57:00,
2013-04-01 08:02:00,30.7,23.7,29.85,SSE,157,0.0,0.0,75,0.00,,,0.00,LWC V2.10 B1813,2013-04-01 14:02:00,
2013-04-01 08:07:00,31.3,24.3,29.85,ESE,112,0.0,0.0,75,0.00,,,0.00,LWC V2.10 B1813,2013-04-01 14:07:00,
2013-04-01 08:12:00,31.8,24.5,29.85,ESE,112,0.0,0.0,74,0.00,,,0.00,LWC V2.10 B1813,2013-04-01 14:12:00,
2013-04-01 08:17:00,32.5,24.8,29.85,ESE,112,0.0,0.0,73,0.00,,,0.00,LWC V2.10 B1813,2013-04-01 14:17:00,
2013-04-01 08:22:00,32.7,25.0,29.85,ESE,112,0.0,0.0,73,0.00,,,0.00,LWC V2.10 B1813,2013-04-01 14:22:00,
2013-04-01 08:29:00,33.4,25.3,29.85,NE,45,0.0,0.0,72,0.00,,,0.00,LWC V2.10 B1813,2013-04-01 14:29:00,
2013-04-01 08:34:00,33.8,25.3,29.85,NE,45,0.0,0.0,71,0.00,,,0.00,LWC V2.10 B1813,2013-04-01 14:34:00,
2013-04-01 08:39:00,34.3,25.5,29.84,NE,45,0.0,0.0,70,0.00,,,0.00,LWC V2.10 B1813,2013-04-01 14:39:00,
2013-04-01 08:44:00,35.2,26.1,29.84,NE,45,0.0,0.0,69,0.00,,,0.00,LWC V2.10 B1813,2013-04-01 14:44:00,
2013-04-01 08:49:00,36.5,26.9,29.84,NE,45,0.0,0.0,68,0.00,,,0.00,LWC V2.10 B1813,2013-04-01 14:49:00,
2013-04-01 08:54:00,38.5,27.6,29.84,ENE,67,0.0,0.0,66,0.00,,,0.00,LWC V2.10 B1813,2013-04-01 14:54:00,
2013-04-01 08:59:00,39.2,27.9,29.84,ENE,67,0.0,0.0,64,0.00,,,0.00,LWC V2.10 B1813,2013-04-01 14:59:00,
2013-04-01 09:04:00,40.1,28.5,29.84,SE,135,0.0,0.0,63,0.00,,,0.00,LWC V2.10 B1813,2013-04-01 15:04:00,
2013-04-01 09:09:00,40.6,28.2,29.84,ESE,112,0.0,0.0,61,0.00,,,0.00,LWC V2.10 B1813,2013-04-01 15:09:00,
2013-04-01 09:14:00,41.0,28.6,29.83,SE,135,0.0,0.0,61,0.00,,,0.00,LWC V2.10 B1813,2013-04-01 15:14:00,
2013-04-01 09:19:00,41.7,28.9,29.83,SSE,157,0.0,0.0,60,0.00,,,0.00,LWC V2.10 B1813,2013-04-01 15:19:00,
2013-04-01 09:24:00,43.0,29.1,29.83,NNE,22,0.0,0.0,58,0.00,,,0.00,LWC V2.10 B1813,2013-04-01 15:24:00,
2013-04-01 09:29:00,43.0,29.1,29.83,SE,135,0.0,0.0,58,0.00,,,0.00,LWC V2.10 B1813,2013-04-01 15:29:00,
2013-04-01 09:34:00,43.3,29.5,29.83,SE,135,0.0,0.0,58,0.00,,,0.00,LWC V2.10 B1813,2013-04-01 15:34:00,
2013-04-01 09:39:00,43.9,29.6,29.83,ESE,112,0.0,0.0,57,0.00,,,0.00,LWC V2.10 B1813,2013-04-01 15:39:00,
2013-04-01 09:44:00,43.2,28.5,29.82,NE,45,0.0,0.0,56,0.00,,,0.00,LWC V2.10 B1813,2013-04-01 15:44:00,
2013-04-01 09:49:00,43.5,29.2,29.83,ESE,112,0.0,0.0,57,0.00,,,0.00,LWC V2.10 B1813,2013-04-01 15:49:00,
2013-04-01 09:54:00,43.5,29.2,29.82,NE,45,0.0,0.0,57,0.00,,,0.00,LWC V2.10 B1813,2013-04-01 15:54:00,
2013-04-01 09:59:00,42.4,28.6,29.82,NE,45,0.0,0.0,58,0.00,,,0.00,LWC V2.10 B1813,2013-04-01 15:59:00,
2013-04-01 10:04:00,43.0,28.7,29.83,NE,45,0.0,0.0,57,0.00,,,0.00,LWC V2.10 B1813,2013-04-01 16:04:00,
2013-04-01 10:09:00,43.5,29.2,29.83,SSE,157,0.0,0.0,57,0.00,,,0.00,LWC V2.10 B1813,2013-04-01 16:09:00,
2013-04-01 10:14:00,44.1,29.8,29.82,NE,45,0.0,0.0,57,0.00,,,0.00,LWC V2.10 B1813,2013-04-01 16:14:00,
2013-04-01 10:19:00,43.9,29.1,29.83,NW,315,0.0,0.0,56,0.00,,,0.00,LWC V2.10 B1813,2013-04-01 16:19:00,
2013-04-01 10:24:00,44.4,29.7,29.83,ENE,67,0.0,0.0,56,0.00,,,0.00,LWC V2.10 B1813,2013-04-01 16:24:00,
2013-04-01 10:29:00,45.0,29.7,29.82,NE,45,0.0,0.0,55,0.00,,,0.00,LWC V2.10 B1813,2013-04-01 16:29:00,
2013-04-01 10:34:00,44.4,29.2,29.82,NNE,22,0.0,0.0,55,0.00,,,0.00,LWC V2.10 B1813,2013-04-01 16:34:00,
2013-04-01 10:39:00,43.2,28.5,29.82,NNE,22,0.0,0.0,56,0.00,,,0.00,LWC V2.10 B1813,2013-04-01 16:39:00,
2013-04-01 10:44:00,43.2,28.9,29.82,East,90,0.0,0.0,57,0.00,,,0.00,LWC V2.10 B1813,2013-04-01 16:44:00,
2013-04-01 10:49:00,43.5,28.8,29.82,NE,45,0.0,0.0,56,0.00,,,0.00,LWC V2.10 B1813,2013-04-01 16:49:00,
2013-04-01 10:54:00,43.5,28.8,29.82,NE,45,0.0,0.0,56,0.00,,,0.00,LWC V2.10 B1813,2013-04-01 16:54:00,
2013-04-01 10:59:00,43.7,29.0,29.82,NE,45,0.0,0.0,56,0.00,,,0.00,LWC V2.10 B1813,2013-04-01 16:59:00,
2013-04-01 11:04:00,43.9,29.1,29.82,NE,45,0.0,0.0,56,0.00,,,0.00,LWC V2.10 B1813,2013-04-01 17:04:00,
2013-04-01 11:09:00,44.1,28.9,29.82,NNE,22,0.0,0.0,55,0.00,,,0.00,LWC V2.10 B1813,2013-04-01 17:09:00,
2013-04-01 11:14:00,43.9,28.7,29.81,NE,45,0.0,0.0,55,0.00,,,0.00,LWC V2.10 B1813,2013-04-01 17:14:00,
2013-04-01 11:19:00,43.5,28.4,29.81,NE,45,0.0,0.0,55,0.00,,,0.00,LWC V2.10 B1813,2013-04-01 17:19:00,
2013-04-01 11:24:00,43.5,28.4,29.81,NE,45,0.0,0.0,55,0.00,,,0.00,LWC V2.10 B1813,2013-04-01 17:24:00,
2013-04-01 11:29:00,43.9,28.7,29.81,NE,45,0.0,0.0,55,0.00,,,0.00,LWC V2.10 B1813,2013-04-01 17:29:00,
2013-04-01 11:34:00,44.2,29.0,29.82,West,270,0.0,0.0,55,0.00,,,0.00,LWC V2.10 B1813,2013-04-01 17:34:00,
2013-04-01 11:39:00,44.4,29.2,29.81,ESE,112,0.0,0.0,55,0.00,,,0.00,LWC V2.10 B1813,2013-04-01 17:39:00,
2013-04-01 11:44:00,45.0,29.7,29.81,NE,45,0.0,0.0,55,0.00,,,0.00,LWC V2.10 B1813,2013-04-01 17:44:00,
2013-04-01 11:49:00,45.1,29.4,29.81,SSE,157,0.0,0.0,54,0.00,,,0.00,LWC V2.10 B1813,2013-04-01 17:49:00,
2013-04-01 11:54:00,45.5,29.8,29.81,SSE,157,0.0,0.0,54,0.00,,,0.00,LWC V2.10 B1813,2013-04-01 17:54:00,
2013-04-01 11:59:00,45.3,29.6,29.81,NNE,22,0.0,0.0,54,0.00,,,0.00,LWC V2.10 B1813,2013-04-01 17:59:00,
2013-04-01 12:04:00,44.6,28.9,29.81,ENE,67,0.0,0.0,54,0.00,,,0.00,LWC V2.10 B1813,2013-04-01 18:04:00,
2013-04-01 12:09:00,44.6,28.9,29.81,NE,45,0.0,0.0,54,0.00,,,0.00,LWC V2.10 B1813,2013-04-01 18:09:00,
2013-04-01 12:14:00,44.4,28.8,29.81,SSE,157,0.0,0.0,54,0.00,,,0.00,LWC V2.10 B1813,2013-04-01 18:14:00,
2013-04-01 12:19:00,45.3,29.4,29.81,SE,135,0.0,0.0,54,0.00,,,0.00,LWC V2.10 B1813,2013-04-01 18:19:00,
2013-04-01 12:24:00,45.3,29.6,29.81,SE,135,0.0,0.0,54,0.00,,,0.00,LWC V2.10 B1813,2013-04-01 18:24:00,
2013-04-01 12:29:00,45.9,30.1,29.81,SE,135,0.0,0.0,54,0.00,,,0.00,LWC V2.10 B1813,2013-04-01 18:29:00,
2013-04-01 12:34:00,45.7,29.5,29.80,NNE,22,0.0,0.0,53,0.00,,,0.00,LWC V2.10 B1813,2013-04-01 18:34:00,
2013-04-01 12:39:00,45.3,29.1,29.80,NE,45,0.0,0.0,53,0.00,,,0.00,LWC V2.10 B1813,2013-04-01 18:39:00,
2013-04-01 12:44:00,45.0,29.3,29.80,NNE,22,0.0,0.0,54,0.00,,,0.00,LWC V2.10 B1813,2013-04-01 18:44:00,
2013-04-01 12:49:00,45.3,29.6,29.80,ESE,112,0.0,0.0,54,0.00,,,0.00,LWC V2.10 B1813,2013-04-01 18:49:00,
2013-04-01 12:54:00,45.5,29.3,29.80,NE,45,0.0,0.0,53,0.00,,,0.00,LWC V2.10 B1813,2013-04-01 18:54:00,
2013-04-01 12:59:00,45.3,29.6,29.81,ESE,112,0.0,0.0,54,0.00,,,0.00,LWC V2.10 B1813,2013-04-01 18:59:00,
2013-04-01 13:04:00,45.3,29.1,29.81,NE,45,0.0,0.0,53,0.00,,,0.00,LWC V2.10 B1813,2013-04-01 19:04:00,
2013-04-01 13:09:00,45.3,29.1,29.80,NE,45,0.0,0.0,53,0.00,,,0.00,LWC V2.10 B1813,2013-04-01 19:09:00,
2013-04-01 13:14:00,45.7,29.5,29.80,NE,45,0.0,0.0,53,0.00,,,0.00,LWC V2.10 B1813,2013-04-01 19:14:00,
2013-04-01 13:19:00,46.0,29.3,29.80,East,90,0.0,0.0,52,0.00,,,0.00,LWC V2.10 B1813,2013-04-01 19:19:00,
2013-04-01 13:24:00,46.2,29.5,29.80,NE,45,0.0,0.0,52,0.00,,,0.00,LWC V2.10 B1813,2013-04-01 19:24:00,
2013-04-01 13:29:00,46.6,29.4,29.80,NE,45,0.0,0.0,51,0.00,,,0.00,LWC V2.10 B1813,2013-04-01 19:29:00,
2013-04-01 13:34:00,48.0,30.2,29.79,NE,45,0.0,0.0,50,0.00,,,0.00,LWC V2.10 B1813,2013-04-01 19:34:00,
2013-04-01 13:39:00,48.7,30.9,29.79,SSE,157,0.0,0.0,50,0.00,,,0.00,LWC V2.10 B1813,2013-04-01 19:39:00,
2013-04-01 13:44:00,49.8,31.4,29.79,SSW,202,0.0,0.0,49,0.00,,,0.00,LWC V2.10 B1813,2013-04-01 19:44:00,
2013-04-01 13:49:00,49.8,31.4,29.79,West,270,0.0,0.0,49,0.00,,,0.00,LWC V2.10 B1813,2013-04-01 19:49:00,
2013-04-01 13:54:00,49.6,31.3,29.79,NW,315,0.0,0.0,49,0.00,,,0.00,LWC V2.10 B1813,2013-04-01 19:54:00,
2013-04-01 13:59:00,49.1,31.3,29.78,NE,45,0.0,0.0,50,0.00,,,0.00,LWC V2.10 B1813,2013-04-01 19:59:00,
2013-04-01 14:05:00,49.3,31.5,29.79,ENE,67,0.0,0.0,50,0.00,,,0.00,LWC V2.10 B1813,2013-04-01 20:05:00,
2013-04-01 14:10:00,49.8,32.0,29.78,NE,45,0.0,0.0,50,0.00,,,0.00,LWC V2.10 B1813,2013-04-01 20:10:00,
2013-04-01 14:15:00,51.1,32.6,29.78,SE,135,0.0,0.0,49,0.00,,,0.00,LWC V2.10 B1813,2013-04-01 20:15:00,
2013-04-01 14:20:00,52.5,32.8,29.78,SE,135,0.0,0.0,47,0.00,,,0.00,LWC V2.10 B1813,2013-04-01 20:20:00,
2013-04-01 14:25:00,52.5,32.2,29.78,North,0,0.0,0.0,46,0.00,,,0.00,LWC V2.10 B1813,2013-04-01 20:25:00,
2013-04-01 14:30:00,52.5,32.2,29.77,NE,45,0.0,0.0,46,0.00,,,0.00,LWC V2.10 B1813,2013-04-01 20:30:00,
2013-04-01 14:35:00,52.2,32.5,29.76,North,0,0.0,0.0,47,0.00,,,0.00,LWC V2.10 B1813,2013-04-01 20:35:00,
2013-04-01 14:40:00,52.7,32.4,29.76,West,270,0.0,0.0,46,0.00,,,0.00,LWC V2.10 B1813,2013-04-01 20:40:00,
2013-04-01 14:45:00,53.8,32.8,29.76,North,0,0.0,0.0,46,0.00,,,0.00,LWC V2.10 B1813,2013-04-01 20:45:00,
2013-04-01 14:50:00,54.3,33.3,29.76,NE,45,0.0,0.0,45,0.00,,,0.00,LWC V2.10 B1813,2013-04-01 20:50:00,
2013-04-01 14:55:00,54.0,33.0,29.76,NE,45,0.0,0.0,45,0.00,,,0.00,LWC V2.10 B1813,2013-04-01 20:55:00,
2013-04-01 15:00:00,53.4,33.7,29.76,NE,45,0.0,0.0,45,0.00,,,0.00,LWC V2.10 B1813,2013-04-01 21:00:00,
2013-04-01 15:05:00,54.1,32.6,29.76,North,0,0.0,0.0,44,0.00,,,0.00,LWC V2.10 B1813,2013-04-01 21:05:00,
2013-04-01 15:10:00,54.7,33.6,29.76,SSE,157,0.0,0.0,45,0.00,,,0.00,LWC V2.10 B1813,2013-04-01 21:10:00,
2013-04-01 15:15:00,55.4,33.5,29.75,NNW,337,0.0,0.0,43,0.00,,,0.00,LWC V2.10 B1813,2013-04-01 21:15:00,
2013-04-01 15:20:00,55.6,33.9,29.75,WSW,247,0.0,0.0,44,0.00,,,0.00,LWC V2.10 B1813,2013-04-01 21:20:00,
2013-04-01 15:25:00,55.8,33.5,29.75,WSW,247,0.0,0.0,43,0.00,,,0.00,LWC V2.10 B1813,2013-04-01 21:25:00,
2013-04-01 15:30:00,55.2,33.0,29.75,WSW,247,0.0,0.0,43,0.00,,,0.00,LWC V2.10 B1813,2013-04-01 21:30:00,
2013-04-01 15:35:00,54.7,32.5,29.75,ENE,67,0.0,0.0,43,0.00,,,0.00,LWC V2.10 B1813,2013-04-01 21:35:00,
2013-04-01 15:40:00,54.1,32.6,29.75,WSW,247,0.0,0.0,44,0.00,,,0.00,LWC V2.10 B1813,2013-04-01 21:40:00,
2013-04-01 15:45:00,52.5,31.7,29.75,WSW,247,0.0,0.0,45,0.00,,,0.00,LWC V2.10 B1813,2013-04-01 21:45:00,
2013-04-01 15:50:00,52.9,32.0,29.75,NE,45,0.0,0.0,45,0.00,,,0.00,LWC V2.10 B1813,2013-04-01 21:50:00,
2013-04-01 15:55:00,53.8,32.8,29.75,SE,135,0.0,0.0,45,0.00,,,0.00,LWC V2.10 B1813,2013-04-01 21:55:00,
2013-04-01 16:00:00,53.4,32.0,29.75,SE,135,0.0,0.0,45,0.00,,,0.00,LWC V2.10 B1813,2013-04-01 22:00:00,
2013-04-01 16:05:00,51.6,31.4,29.75,NE,45,0.0,0.0,46,0.00,,,0.00,LWC V2.10 B1813,2013-04-01 22:05:00,
2013-04-01 16:10:00,51.4,31.2,29.75,NE,45,0.0,0.0,46,0.00,,,0.00,LWC V2.10 B1813,2013-04-01 22:10:00,
2013-04-01 16:15:00,50.7,31.3,29.75,NE,45,0.0,0.0,47,0.00,,,0.00,LWC V2.10 B1813,2013-04-01 22:15:00,
2013-04-01 16:20:00,50.7,31.2,29.75,NE,45,0.0,0.0,47,0.00,,,0.00,LWC V2.10 B1813,2013-04-01 22:20:00,
2013-04-01 16:25:00,50.7,31.7,29.75,NE,45,0.0,0.0,48,0.00,,,0.00,LWC V2.10 B1813,2013-04-01 22:25:00,
2013-04-01 16:30:00,50.7,31.2,29.75,North,0,0.0,0.0,47,0.00,,,0.00,LWC V2.10 B1813,2013-04-01 22:30:00,
2013-04-01 16:35:00,50.9,31.9,29.75,North,0,0.0,0.0,48,0.00,,,0.00,LWC V2.10 B1813,2013-04-01 22:35:00,
2013-04-01 16:40:00,51.3,32.2,29.75,NNE,22,0.0,0.0,48,0.00,,,0.00,LWC V2.10 B1813,2013-04-01 22:40:00,
2013-04-01 16:45:00,51.1,31.5,29.75,NE,45,0.0,0.0,47,0.00,,,0.00,LWC V2.10 B1813,2013-04-01 22:45:00,
2013-04-01 16:50:00,51.1,31.5,29.75,NNW,337,0.0,0.0,47,0.00,,,0.00,LWC V2.10 B1813,2013-04-01 22:50:00,
2013-04-01 16:55:00,50.7,31.7,29.75,ENE,67,0.0,0.0,48,0.00,,,0.00,LWC V2.10 B1813,2013-04-01 22:55:00,
2013-04-01 17:00:00,50.9,31.9,29.75,ENE,67,0.0,0.0,48,0.00,,,0.00,LWC V2.10 B1813,2013-04-01 23:00:00,
2013-04-01 17:05:00,50.9,31.9,29.75,SE,135,0.0,0.0,48,0.00,,,0.00,LWC V2.10 B1813,2013-04-01 23:05:00,
2013-04-01 17:10:00,50.7,31.7,29.75,NE,45,0.0,0.0,48,0.00,,,0.00,LWC V2.10 B1813,2013-04-01 23:10:00,
2013-04-01 17:15:00,50.4,31.9,29.75,NNE,22,0.0,0.0,49,0.00,,,0.00,LWC V2.10 B1813,2013-04-01 23:15:00,
2013-04-01 17:20:00,50.2,32.3,29.75,NE,45,0.0,0.0,50,0.00,,,0.00,LWC V2.10 B1813,2013-04-01 23:20:00,
2013-04-01 17:25:00,49.8,32.0,29.75,NE,45,0.0,0.0,50,0.00,,,0.00,LWC V2.10 B1813,2013-04-01 23:25:00,
2013-04-01 17:30:00,49.6,32.3,29.75,ENE,67,0.0,0.0,51,0.00,,,0.00,LWC V2.10 B1813,2013-04-01 23:30:00,
2013-04-01 17:35:00,49.3,31.9,29.76,ESE,112,0.0,0.0,51,0.00,,,0.00,LWC V2.10 B1813,2013-04-01 23:35:00,
2013-04-01 17:40:00,49.3,31.9,29.75,NE,45,0.0,0.0,51,0.00,,,0.00,LWC V2.10 B1813,2013-04-01 23:40:00,
2013-04-01 17:45:00,48.7,31.8,29.75,SSE,157,0.0,0.0,52,0.00,,,0.00,LWC V2.10 B1813,2013-04-01 23:45:00,
2013-04-01 17:50:00,48.7,31.8,29.75,East,90,0.0,0.0,52,0.00,,,0.00,LWC V2.10 B1813,2013-04-01 23:50:00,
2013-04-01 17:55:00,48.6,31.7,29.75,SE,135,0.0,0.0,52,0.00,,,0.00,LWC V2.10 B1813,2013-04-01 23:55:00,
2013-04-01 18:00:00,48.2,31.3,29.75,SE,135,0.0,0.0,52,0.00,,,0.00,LWC V2.10 B1813,2013-04-02 00:00:00,
2013-04-01 18:05:00,48.0,31.1,29.75,East,90,0.0,0.0,52,0.00,,,0.00,LWC V2.10 B1813,2013-04-02 00:05:00,
2013-04-01 18:10:00,48.0,31.1,29.76,East,90,0.0,0.0,52,0.00,,,0.00,LWC V2.10 B1813,2013-04-02 00:10:00,
2013-04-01 18:15:00,48.0,31.1,29.76,East,90,0.0,0.0,52,0.00,,,0.00,LWC V2.10 B1813,2013-04-02 00:15:00,
2013-04-01 18:20:00,48.0,31.1,29.77,East,90,0.0,0.0,52,0.00,,,0.00,LWC V2.10 B1813,2013-04-02 00:20:00,
2013-04-01 18:25:00,47.8,31.4,29.76,NE,45,0.0,0.0,53,0.00,,,0.00,LWC V2.10 B1813,2013-04-02 00:25:00,
2013-04-01 18:30:00,47.5,31.1,29.77,North,0,0.0,0.0,53,0.00,,,0.00,LWC V2.10 B1813,2013-04-02 00:30:00,
2013-04-01 18:35:00,47.3,30.9,29.77,ESE,112,0.0,0.0,53,0.00,,,0.00,LWC V2.10 B1813,2013-04-02 00:35:00,
2013-04-01 18:40:00,47.1,30.8,29.77,SSE,157,0.0,0.0,53,0.00,,,0.00,LWC V2.10 B1813,2013-04-02 00:40:00,
2013-04-01 18:45:00,46.9,31.1,29.77,NNE,22,0.0,0.0,54,0.00,,,0.00,LWC V2.10 B1813,2013-04-02 00:45:00,
2013-04-01 18:50:00,46.8,31.4,29.77,NNE,22,0.0,0.0,55,0.00,,,0.00,LWC V2.10 B1813,2013-04-02 00:50:00,
2013-04-01 18:55:00,46.2,31.3,29.77,ENE,67,0.0,0.0,56,0.00,,,0.00,LWC V2.10 B1813,2013-04-02 00:55:00,
2013-04-01 19:00:00,45.7,31.7,29.77,SE,135,0.0,0.0,58,0.00,,,0.00,LWC V2.10 B1813,2013-04-02 01:00:00,
2013-04-01 19:05:00,45.5,32.5,29.77,SE,135,0.0,0.0,60,0.00,,,0.00,LWC V2.10 B1813,2013-04-02 01:05:00,
2013-04-01 19:10:00,45.1,32.1,29.77,SE,135,0.0,0.0,60,0.00,,,0.00,LWC V2.10 B1813,2013-04-02 01:10:00,
2013-04-01 19:15:00,44.6,32.0,29.78,NNE,22,0.0,0.0,61,0.00,,,0.00,LWC V2.10 B1813,2013-04-02 01:15:00,
2013-04-01 19:20:00,44.2,31.7,29.78,North,0,0.0,0.0,61,0.00,,,0.00,LWC V2.10 B1813,2013-04-02 01:20:00,
2013-04-01 19:25:00,44.2,32.0,29.78,North,0,0.0,0.0,62,0.00,,,0.00,LWC V2.10 B1813,2013-04-02 01:25:00,
2013-04-01 19:30:00,43.9,31.7,29.79,North,0,0.0,0.0,62,0.00,,,0.00,LWC V2.10 B1813,2013-04-02 01:30:00,
2013-04-01 19:35:00,43.9,31.7,29.79,North,0,0.0,0.0,62,0.00,,,0.00,LWC V2.10 B1813,2013-04-02 01:35:00,
2013-04-01 19:40:00,43.9,31.7,29.80,North,0,0.0,0.0,62,0.00,,,0.00,LWC V2.10 B1813,2013-04-02 01:40:00,
2013-04-01 19:45:00,43.7,31.5,29.80,North,0,0.0,0.0,62,0.00,,,0.00,LWC V2.10 B1813,2013-04-02 01:45:00,
2013-04-01 19:50:00,43.7,31.5,29.79,NE,45,0.0,0.0,62,0.00,,,0.00,LWC V2.10 B1813,2013-04-02 01:50:00,
2013-04-01 19:55:00,43.9,31.7,29.79,NE,45,0.0,0.0,62,0.00,,,0.00,LWC V2.10 B1813,2013-04-02 01:55:00,
2013-04-01 20:00:00,43.7,31.5,29.79,NE,45,0.0,0.0,62,0.00,,,0.00,LWC V2.10 B1813,2013-04-02 02:00:00,
2013-04-01 20:05:00,43.5,31.7,29.79,NE,45,0.0,0.0,63,0.00,,,0.00,LWC V2.10 B1813,2013-04-02 02:05:00,
2013-04-01 20:10:00,43.5,31.7,29.79,North,0,0.0,0.0,63,0.00,,,0.00,LWC V2.10 B1813,2013-04-02 02:10:00,
2013-04-01 20:15:00,43.2,31.8,29.80,NE,45,0.0,0.0,64,0.00,,,0.00,LWC V2.10 B1813,2013-04-02 02:15:00,
2013-04-01 20:20:00,42.8,32.2,29.80,NE,45,0.0,0.0,66,0.00,,,0.00,LWC V2.10 B1813,2013-04-02 02:20:00,
2013-04-01 20:25:00,42.4,31.9,29.80,NE,45,0.0,0.0,66,0.00,,,0.00,LWC V2.10 B1813,2013-04-02 02:25:00,
2013-04-01 20:30:00,42.1,31.9,29.80,NNE,22,0.0,0.0,67,0.00,,,0.00,LWC V2.10 B1813,2013-04-02 02:30:00,
2013-04-01 20:35:00,41.9,32.1,29.81,NE,45,0.0,0.0,68,0.00,,,0.00,LWC V2.10 B1813,2013-04-02 02:35:00,
2013-04-01 20:40:00,41.7,31.9,29.81,NE,45,0.0,0.0,68,0.00,,,0.00,LWC V2.10 B1813,2013-04-02 02:40:00,
2013-04-01 20:45:00,41.5,31.8,29.81,NE,45,0.0,0.0,68,0.00,,,0.00,LWC V2.10 B1813,2013-04-02 02:45:00,
2013-04-01 20:50:00,41.4,31.6,29.81,NE,45,0.0,0.0,68,0.00,,,0.00,LWC V2.10 B1813,2013-04-02 02:50:00,
2013-04-01 20:55:00,41.2,31.8,29.81,NE,45,0.0,0.0,69,0.00,,,0.00,LWC V2.10 B1813,2013-04-02 02:55:00,
2013-04-01 21:00:00,41.2,31.4,29.81,NNE,22,0.0,0.0,68,0.00,,,0.00,LWC V2.10 B1813,2013-04-02 03:00:00,
2013-04-01 21:05:00,41.2,31.4,29.81,North,0,0.0,0.0,68,0.00,,,0.00,LWC V2.10 B1813,2013-04-02 03:05:00,
2013-04-01 21:10:00,41.4,32.0,29.81,NNE,22,0.0,0.0,69,0.00,,,0.00,LWC V2.10 B1813,2013-04-02 03:10:00,
2013-04-01 21:15:00,41.2,31.4,29.82,North,0,0.0,0.0,68,0.00,,,0.00,LWC V2.10 B1813,2013-04-02 03:15:00,
2013-04-01 21:20:00,41.2,31.4,29.82,North,0,0.0,0.0,68,0.00,,,0.00,LWC V2.10 B1813,2013-04-02 03:20:00,
2013-04-01 21:25:00,41.2,31.8,29.82,North,0,0.0,0.0,69,0.00,,,0.00,LWC V2.10 B1813,2013-04-02 03:25:00,
2013-04-01 21:30:00,41.2,31.8,29.83,North,0,0.0,0.0,69,0.00,,,0.00,LWC V2.10 B1813,2013-04-02 03:30:00,
2013-04-01 21:35:00,41.2,31.8,29.82,NNE,22,0.0,0.0,69,0.00,,,0.00,LWC V2.10 B1813,2013-04-02 03:35:00,
2013-04-01 21:40:00,41.2,31.8,29.82,NE,45,0.0,0.0,69,0.00,,,0.00,LWC V2.10 B1813,2013-04-02 03:40:00,
2013-04-01 21:45:00,41.0,31.6,29.82,NE,45,0.0,0.0,69,0.00,,,0.00,LWC V2.10 B1813,2013-04-02 03:45:00,
2013-04-01 21:50:00,40.8,31.4,29.82,NE,45,0.0,0.0,69,0.00,,,0.00,LWC V2.10 B1813,2013-04-02 03:50:00,
2013-04-01 21:55:00,40.8,31.4,29.82,NE,45,0.0,0.0,69,0.00,,,0.00,LWC V2.10 B1813,2013-04-02 03:55:00,
2013-04-01 22:00:00,40.8,31.4,29.82,NE,45,0.0,0.0,69,0.00,,,0.00,LWC V2.10 B1813,2013-04-02 04:00:00,
2013-04-01 22:01:00,40.8,31.4,29.81,NE,45,0.0,0.0,69,0.00,,,0.00,LWC V2.10 B1813,2013-04-02 04:01:00,
2013-04-01 22:06:00,40.8,31.8,29.81,NNE,22,0.0,0.0,70,0.00,,,0.00,LWC V2.10 B1813,2013-04-02 04:06:00,
2013-04-01 22:11:00,40.8,31.8,29.81,NNE,22,0.0,0.0,70,0.00,,,0.00,LWC V2.10 B1813,2013-04-02 04:11:00,
2013-04-01 22:16:00,40.8,31.8,29.81,NNE,22,0.0,0.0,70,0.00,,,0.00,LWC V2.10 B1813,2013-04-02 04:16:00,
2013-04-01 22:21:00,40.6,31.6,29.81,WSW,247,0.0,0.0,70,0.00,,,0.00,LWC V2.10 B1813,2013-04-02 04:21:00,
2013-04-01 22:26:00,40.6,31.6,29.81,WSW,247,0.0,0.0,70,0.00,,,0.00,LWC V2.10 B1813,2013-04-02 04:26:00,
2013-04-01 22:31:00,40.5,31.5,29.81,WSW,247,0.0,0.0,70,0.00,,,0.00,LWC V2.10 B1813,2013-04-02 04:31:00,
2013-04-01 22:37:00,40.3,31.6,29.81,WSW,247,0.0,0.0,71,0.00,,,0.00,LWC V2.10 B1813,2013-04-02 04:37:00,
2013-04-01 22:42:00,40.3,31.6,29.81,WSW,247,0.0,0.0,71,0.00,,,0.00,LWC V2.10 B1813,2013-04-02 04:42:00,
2013-04-01 22:47:00,40.3,31.8,29.80,WSW,247,0.0,0.0,72,0.00,,,0.00,LWC V2.10 B1813,2013-04-02 04:47:00,
2013-04-01 22:52:00,40.1,31.8,29.81,WSW,247,0.0,0.0,72,0.00,,,0.00,LWC V2.10 B1813,2013-04-02 04:52:00,
2013-04-01 22:57:00,40.1,31.8,29.81,WSW,247,0.0,0.0,72,0.00,,,0.00,LWC V2.10 B1813,2013-04-02 04:57:00,
2013-04-01 23:02:00,39.9,31.6,29.81,WSW,247,0.0,0.0,72,0.00,,,0.00,LWC V2.10 B1813,2013-04-02 05:02:00,
2013-04-01 23:07:00,39.9,31.6,29.80,WSW,247,0.0,0.0,72,0.00,,,0.00,LWC V2.10 B1813,2013-04-02 05:07:00,
2013-04-01 23:12:00,39.9,31.6,29.80,NNE,22,0.0,0.0,72,0.00,,,0.00,LWC V2.10 B1813,2013-04-02 05:12:00,
2013-04-01 23:17:00,40.1,31.2,29.81,NE,45,0.0,0.0,71,0.00,,,0.00,LWC V2.10 B1813,2013-04-02 05:17:00,
2013-04-01 23:22:00,39.9,31.2,29.80,North,0,0.0,0.0,71,0.00,,,0.00,LWC V2.10 B1813,2013-04-02 05:22:00,
2013-04-01 23:27:00,39.9,31.2,29.81,North,0,0.0,0.0,71,0.00,,,0.00,LWC V2.10 B1813,2013-04-02 05:27:00,
2013-04-01 23:32:00,39.7,31.2,29.80,NE,45,0.0,0.0,71,0.00,,,0.00,LWC V2.10 B1813,2013-04-02 05:32:00,
2013-04-01 23:37:00,39.7,31.1,29.80,NE,45,0.0,0.0,71,0.00,,,0.00,LWC V2.10 B1813,2013-04-02 05:37:00,
2013-04-01 23:42:00,39.6,30.9,29.80,North,0,0.0,0.0,71,0.00,,,0.00,LWC V2.10 B1813,2013-04-02 05:42:00,
2013-04-01 23:47:00,39.6,30.9,29.80,North,0,0.0,0.0,71,0.00,,,0.00,LWC V2.10 B1813,2013-04-02 05:47:00,
2013-04-01 23:52:00,39.6,30.9,29.80,NE,45,0.0,0.0,71,0.00,,,0.00,LWC V2.10 B1813,2013-04-02 05:52:00,
2013-04-01 23:57:00,39.6,30.9,29.81,NNE,22,0.0,0.0,71,0.00,,,0.00,LWC V2.10 B1813,2013-04-02 05:57:00,